#timestamp,LO_Frequency,Hit,StdDev 
1507968015.4,286047002.7,N
1507968035.2,286047002.3,N
1507968055.0,286047001.7,N
1507968055.9,286047001.7,N
1507968075.8,286047003.1,N
1507968095.6,286047001.3,N
1507968115.4,286047000.8,N
1507968135.2,286047001.9,N
1507968155.1,286046999.7,N
1507968156.0,286046999.7,N
1507968175.8,286046998.2,N
1507968195.6,286046997.3,N
1507968215.5,286047001.1,N
1507968235.3,286046998.7,N
1507968255.1,286046999.9,N
1507968275.9,286046998.8,N
1507968295.7,286046995.4,N
1507968315.5,286047002.3,N
1507968335.4,286046998.6,N
1507968355.2,286046998.3,N
1507968375.0,286046999.6,N
1507968375.9,286046999.6,N
1507968395.8,286046996.7,N
1507968415.6,286046999.2,N
1507968435.4,286046996.6,N
1507968455.3,286047000.8,N
1507968475.1,286046998.7,N
1507968476.0,286046998.7,N
1507968495.8,286047002.4,N
1507968515.7,286047000.5,N
1507968535.5,286046998.8,N
1507968555.3,286047000.1,N
1507968575.2,286047000.9,N
1507968595.9,286046997.1,N
1507968615.7,286047004.4,N
1507968635.2,286046998.2,N
1507968655.9,286047001.4,N
1507968675.7,286047002.6,N
1507968695.6,286047001.8,N
1507968715.4,286047001.0,N
1507968735.2,286047001.6,N
1507968755.1,286047005.8,N
1507968756.0,286047005.8,N
1507968775.8,286047000.6,N
1507968795.6,286046998.2,N
1507968815.4,286046999.7,N
1507968835.3,286046996.8,N
1507968855.1,286046997.2,N
1507968875.8,286046998.8,N
1507968895.7,286046998.9,N
1507968915.5,286046998.5,N
1507968935.3,286047002.4,N
1507968955.2,286047002.1,N
1507968975.9,286047002.0,N
1507968995.7,286047007.1,N
1507969015.6,286047003.5,N
1507969035.4,286047000.5,N
1507969055.2,286046998.8,N
1507969075.1,286046998.9,N
1507969076.0,286046998.9,N
1507969095.8,286047002.7,N
1507969115.6,286047002.5,N
1507969135.5,286047002.6,N
1507969155.3,286047004.1,N
1507969175.1,286047005.6,N
1507969195.9,286047006.1,N
1507969215.7,286047007.8,N
1507969235.5,286047005.3,N
1507969255.4,286047005.5,N
1507969275.2,286047007.1,N
1507969295.0,286047003.1,N
1507969295.9,286047003.1,N
1507969315.8,286047005.8,N
1507969335.6,286047001.4,N
1507969355.4,286047003.2,N
1507969375.2,286047006.7,N
1507969395.1,286047008.5,N
1507969396.0,286047008.5,N
1507969415.8,286047004.7,N
1507969435.6,286047005.3,N
1507969455.5,286047004.2,N
1507969475.3,286047001.3,N
1507969495.1,286046999.7,N
1507969515.9,286047001.4,N
1507969535.7,286047001.0,N
1507969555.5,286047003.0,N
1507969575.4,286047002.8,N
1507969595.2,286046999.7,N
1507969615.0,286047001.3,N
1507969615.9,286047001.3,N
1507969635.8,286047002.1,N
1507969655.6,286047002.2,N
1507969675.4,286047002.6,N
1507969695.3,286047004.0,N
1507969715.1,286047003.0,N
1507969716.0,286047003.0,N
1507969735.8,286047005.9,N
1507969755.7,286046998.5,N
1507969775.5,286047001.2,N
1507969795.3,286046999.6,N
1507969815.1,286046996.6,N
1507969835.9,286047000.1,N
1507969855.7,286047001.1,N
1507969875.5,286046997.4,N
1507969895.4,286047000.9,N
1507969915.2,286047002.6,N
1507969935.0,286047003.6,N
1507969935.9,286047003.6,N
1507969955.8,286047004.1,N
1507969975.6,286047000.0,N
1507969995.4,286047002.8,N
1507970015.3,286047000.6,N
1507970035.1,286046998.9,N
1507970036.0,286046998.9,N
1507970055.8,286047000.0,N
1507970075.7,286046998.7,N
1507970095.5,286047000.1,N
1507970115.3,286047000.3,N
1507970135.2,286047002.6,N
1507970155.9,286047002.3,N
1507970175.7,286047000.5,N
1507970195.6,286047001.2,N
1507970215.4,286046999.4,N
1507970235.2,286046998.9,N
1507970255.0,286046999.5,N
1507970255.9,286046999.5,N
1507970275.8,286047000.6,N
1507970295.6,286047005.9,Y
1507970315.4,286047006.1,P
1507970335.3,286047002.7,N
1507970355.1,286046998.5,N
1507970375.8,286047000.1,N
1507970395.7,286047004.4,N
1507970415.5,286047001.2,N
1507970435.3,286047002.8,N
1507970455.2,286047002.4,N
1507970475.9,286047000.3,N
1507970495.7,286047002.8,N
1507970515.6,286047002.1,N
1507970535.4,286047005.8,N
1507970555.2,286047007.3,Y
1507970575.1,286047002.6,P
1507970576.0,286047002.6,P
1507970595.8,286047000.1,N
1507970615.6,286047001.1,N
1507970635.5,286046996.5,Y
1507970655.3,286046993.6,P
1507970675.1,286046996.8,N
1507970695.9,286046997.1,N
1507970715.7,286046997.0,N
1507970735.5,286046995.3,N
1507970755.4,286046998.0,N
1507970775.2,286046994.2,N
1507970795.0,286046994.4,N
1507970795.9,286046994.4,N
1507970815.8,286046992.3,Y
1507970835.6,286046994.7,P
1507970855.4,286046993.8,P
1507970875.2,286046993.6,P
1507970895.1,286046997.0,N
1507970896.0,286046997.0,N
1507970915.8,286046995.2,Y
1507970935.7,286047003.2,P
1507970955.5,286047007.2,N
1507970975.3,286047005.0,N
1507970995.1,286047009.3,N
1507971015.9,286047008.1,N
1507971035.7,286047005.3,N
1507971055.5,286047007.1,N
1507971075.4,286047007.2,N
1507971095.2,286047006.9,N
1507971115.0,286047007.2,N
1507971115.9,286047007.2,N
1507971135.8,286047004.9,N
1507971155.6,286047006.1,N
1507971175.4,286047006.9,N
1507971195.3,286047007.2,N
1507971215.1,286047004.5,N
1507971216.0,286047004.5,N
1507971235.8,286047008.5,N
1507971255.7,286047006.5,N
1507971275.5,286047007.3,N
1507971295.3,286047005.3,N
1507971315.1,286047001.7,N
1507971335.9,286047003.3,N
1507971355.7,286047003.7,N
1507971375.5,286047003.2,N
1507971395.4,286047003.6,N
1507971415.2,286047005.5,N
1507971435.0,286047002.3,N
1507971435.9,286047002.3,N
1507971455.8,286047001.0,N
1507971475.6,286047002.1,N
1507971495.4,286047004.0,N
1507971515.3,286047005.9,N
1507971535.1,286047000.7,N
1507971536.0,286047000.7,N
1507971555.8,286047002.3,N
1507971575.7,286047001.0,N
1507971595.5,286046998.4,N
